GFSSGP_250_spd_159.txt.gz
Wind_Speed
72 68 65 64 59 62 53 55 55 51 50 49 46 45 40 38 29 28 30 35 35 33 28 26 22 19 16 14 12 11 10 11 11 12 14 14 14 17 15 13 13 14 15 16 18 17 17 21 23
76 72 70 67 62 62 64 61 59 58 54 53 49 47 45 40 36 26 28 33 37 31 32 31 28 24 21 18 18 16 14 14 15 14 17 16 17 16 16 18 16 19 18 18 19 20 22 22 25
78 76 75 68 64 64 70 67 63 59 57 55 53 49 47 43 25 33 36 29 36 34 35 34 33 29 26 23 22 21 18 17 17 18 17 19 20 22 22 20 24 23 22 18 20 21 24 27 29
79 78 76 69 68 70 76 71 65 61 59 57 55 50 43 40 40 34 40 41 36 44 36 39 34 31 29 27 25 22 21 20 20 21 21 22 21 24 27 28 27 26 29 28 26 29 30 30 28
84 80 76 71 71 73 80 76 69 67 66 61 55 48 40 35 44 49 46 46 41 41 39 40 37 33 29 26 23 21 21 22 21 22 24 26 27 24 26 30 31 33 35 35 37 33 31 33 32
86 82 77 73 72 78 85 82 77 72 71 67 60 52 46 40 41 47 46 51 47 44 38 34 37 36 33 29 30 26 26 25 26 24 24 25 27 28 31 34 35 37 37 39 40 39 37 36 34
81 86 79 77 80 81 86 87 84 82 76 70 61 57 49 48 35 37 41 39 42 42 42 40 38 34 32 31 30 29 29 28 29 29 30 29 31 32 35 36 36 38 42 44 45 43 39 38 40
72 86 83 80 82 82 90 91 94 90 79 72 63 61 53 46 54 39 40 41 45 44 44 42 41 34 33 32 34 31 31 32 32 31 31 31 33 36 36 37 40 41 42 45 49 44 38 45 45
71 80 84 81 83 86 93 95 98 91 81 75 69 67 66 47 43 55 49 44 45 45 45 43 43 38 37 35 38 37 36 37 37 37 37 36 34 36 37 37 41 41 40 42 44 45 49 52 53
77 67 78 87 86 87 97 101 100 94 84 80 75 75 69 56 57 57 59 49 48 47 48 47 48 47 44 41 40 41 41 43 43 43 43 42 40 41 41 43 45 45 44 44 45 49 51 55 55
81 71 68 82 91 92 95 104 101 100 89 86 81 81 73 63 55 56 58 59 54 54 54 48 48 50 46 46 45 47 48 53 52 51 51 49 49 48 49 49 49 51 49 52 52 53 55 57 58
87 79 73 74 86 94 99 101 105 101 93 90 92 87 80 80 72 62 60 69 60 59 56 52 52 49 47 50 51 55 56 55 56 56 55 54 53 53 54 54 53 52 50 52 55 56 57 60 61
88 87 82 79 80 87 101 102 109 99 100 98 93 88 89 90 85 74 64 59 68 68 63 59 59 58 57 54 52 54 58 57 57 58 57 58 58 57 56 57 59 58 57 56 56 59 59 60 62
95 92 89 85 85 89 90 101 103 102 103 102 95 91 94 96 94 84 69 67 62 62 63 60 60 55 52 52 54 55 55 57 58 63 65 67 64 64 64 62 62 62 64 62 61 61 63 66 66
99 95 94 91 87 94 91 92 91 103 105 103 99 95 97 92 92 88 79 74 68 65 57 59 61 65 59 59 59 64 63 61 58 60 63 68 70 67 65 65 64 66 67 68 67 66 67 68 67
96 99 99 95 93 93 96 84 85 108 104 103 101 102 96 92 90 88 85 78 74 69 67 55 49 52 52 52 54 59 60 61 61 66 67 71 71 69 67 67 68 70 72 71 69 67 67 66 68
103 105 104 98 97 97 94 87 86 99 104 101 101 99 99 95 95 92 89 82 79 76 69 68 55 46 43 50 57 64 65 67 73 77 81 75 68 61 63 67 71 74 71 70 71 67 70 73 75
108 105 104 99 100 101 90 92 97 91 104 103 99 99 96 96 95 94 90 86 84 77 71 63 62 57 56 60 56 66 74 79 76 77 78 83 79 84 85 85 81 81 80 76 75 78 79 80 79
120 120 111 103 105 105 92 98 103 94 95 105 102 99 97 97 95 92 92 89 89 83 78 69 60 56 49 48 56 59 43 65 66 71 86 88 84 84 89 82 81 79 77 76 82 79 83 82 80
126 126 118 106 107 103 99 101 105 97 88 97 104 99 97 97 95 94 91 96 91 84 78 73 65 58 50 22 26 30 36 68 72 61 67 76 82 82 81 81 84 81 83 76 77 80 78 76 78
121 123 120 108 114 106 104 108 111 100 93 90 100 99 96 96 97 95 95 95 91 84 80 77 67 50 45 42 47 60 38 65 76 73 62 56 61 59 59 61 66 68 65 66 74 80 82 84 94
111 121 121 115 117 110 111 110 111 101 92 85 89 91 95 94 97 92 94 95 90 88 83 81 70 48 48 44 44 41 54 67 54 50 55 55 59 55 54 59 65 71 79 83 84 87 93 108 117
108 119 124 123 117 116 115 114 109 100 93 86 79 86 88 92 91 95 95 93 88 91 85 84 75 55 46 48 42 36 68 67 64 67 57 61 58 59 58 62 80 85 89 91 107 116 115 118 118
110 121 126 128 122 121 117 113 113 101 86 81 76 73 80 92 92 92 95 90 89 91 87 83 80 74 59 70 63 69 80 71 63 69 64 65 75 80 82 83 98 103 105 117 121 119 112 109 108
104 119 128 132 128 119 115 111 108 89 84 81 76 70 69 72 83 92 94 93 89 84 87 84 83 85 85 68 81 93 90 89 88 84 85 84 87 101 111 116 118 122 122 120 115 119 119 118 122
95 114 128 131 133 117 114 109 101 88 83 82 79 74 72 68 65 77 86 89 90 86 87 85 86 88 91 89 87 97 100 95 97 102 102 105 115 116 119 115 113 106 114 116 119 118 118 118 122
90 108 124 125 121 117 113 98 99 93 88 84 78 74 71 66 66 67 73 74 81 85 89 91 88 91 92 98 102 108 108 112 112 117 119 116 116 110 106 110 113 115 117 118 124 129 132 128 121
88 105 121 120 125 122 107 102 101 96 88 81 78 72 67 67 64 59 55 57 68 74 84 87 90 90 92 94 101 111 113 115 116 119 118 116 116 115 115 120 117 119 123 128 130 128 119 112 111
84 103 115 117 118 111 105 98 92 82 79 73 70 67 67 63 57 54 51 51 52 56 67 80 83 81 88 95 100 103 105 109 108 99 98 103 104 107 103 99 103 108 112 117 111 102 101 98 93
91 102 107 111 111 107 97 90 90 86 81 74 68 67 60 56 52 48 48 50 53 50 52 53 55 66 67 67 81 90 91 86 92 89 87 83 88 87 86 83 92 101 107 100 98 93 88 86 86

GFSSGP_250_spd_162.txt.gz
Wind_Speed
69 67 66 62 60 54 54 54 54 54 51 51 48 45 42 40 43 38 34 30 27 29 27 19 17 19 18 16 13 11 11 11 12 11 12 13 15 15 14 16 17 17 21 20 22 20 21 23 22
72 72 70 66 61 58 59 61 58 56 56 53 51 46 45 41 40 35 28 27 30 30 29 27 24 23 21 19 18 17 16 14 16 16 12 12 13 15 18 18 19 18 24 25 23 21 22 22 27
74 75 72 70 61 62 67 67 63 57 56 54 52 50 47 47 42 37 32 29 28 31 32 27 26 26 27 27 24 22 21 17 17 18 18 16 15 17 18 21 22 24 25 27 29 30 29 30 30
77 76 73 69 66 70 74 72 67 62 59 59 54 53 51 47 43 43 37 33 28 30 28 33 28 29 30 31 29 27 24 20 20 21 20 20 20 20 20 21 24 23 24 29 31 32 33 33 31
79 78 73 69 73 75 78 77 71 67 60 58 58 55 53 53 46 44 36 35 34 33 26 28 34 34 35 34 32 30 28 23 23 24 21 21 22 23 22 22 24 27 28 28 31 34 38 39 39
74 79 73 71 77 80 83 83 79 71 68 63 61 58 56 56 52 44 39 35 37 40 37 35 33 36 38 36 32 29 26 26 27 26 25 26 26 25 25 27 30 31 33 32 31 31 33 37 36
65 74 79 77 82 86 86 90 83 77 71 68 64 63 62 58 54 48 47 42 40 40 40 42 37 38 40 41 38 35 33 32 30 29 28 30 31 32 33 34 33 34 35 36 35 31 32 35 37
69 69 77 82 85 89 91 92 90 81 76 70 66 65 63 60 54 43 44 48 48 48 46 49 45 40 44 40 40 36 36 33 34 31 32 33 35 35 36 37 38 39 41 41 38 39 39 39 40
76 71 70 81 88 90 92 95 96 87 76 73 70 68 63 55 55 52 46 44 52 45 49 49 44 44 43 40 41 40 36 36 37 35 36 38 39 41 44 44 44 45 45 43 44 45 45 46 47
78 74 68 72 89 91 91 99 99 91 80 76 72 72 67 63 59 58 55 45 41 50 43 45 46 46 50 45 43 39 35 37 38 39 43 42 46 49 51 52 52 53 50 49 51 49 50 51 50
83 78 77 73 80 91 94 98 100 94 86 81 78 75 75 70 68 60 59 50 50 56 50 43 48 48 51 49 47 48 43 42 42 46 49 52 51 53 52 53 55 54 53 54 54 56 56 56 56
90 83 85 80 77 80 94 98 102 97 91 85 82 76 75 75 70 72 65 64 57 62 50 46 47 50 50 49 50 52 49 48 50 51 51 55 55 57 59 57 58 59 60 61 59 61 62 61 59
96 92 91 87 81 78 85 95 106 97 95 91 86 82 78 76 75 69 60 61 57 60 55 49 50 49 51 50 52 49 46 46 53 50 52 51 57 67 63 60 61 64 65 66 68 67 67 66 64
98 97 96 93 87 82 82 88 100 99 97 94 92 87 83 83 80 78 79 72 66 62 57 57 57 57 55 56 55 53 49 49 51 52 54 62 60 56 57 59 66 67 70 69 69 69 68 68 68
102 102 101 97 92 86 88 87 82 102 99 95 97 95 92 86 84 82 84 73 67 68 64 63 60 65 58 60 56 56 58 55 52 52 57 63 66 62 59 67 73 73 73 72 72 69 66 71 76
109 106 107 103 98 93 92 80 79 104 99 97 98 99 94 89 89 87 83 80 79 74 67 66 63 63 60 61 59 59 49 47 53 57 68 64 65 67 70 66 73 77 79 77 72 70 75 78 70
116 112 112 110 106 100 91 83 85 90 101 100 96 100 99 95 93 91 87 87 84 79 78 73 67 64 56 53 43 40 47 53 56 60 65 62 55 56 58 52 62 65 71 71 74 75 77 73 72
122 118 117 115 111 105 96 90 91 88 101 102 100 98 100 98 97 96 94 90 87 90 83 82 73 67 64 57 52 53 56 54 55 59 50 55 49 49 57 62 66 66 69 74 78 74 72 68 67
122 121 119 117 115 108 102 98 99 93 92 99 102 97 100 98 97 97 94 91 92 90 91 88 81 70 62 63 56 55 58 53 47 37 49 48 51 55 56 61 57 61 64 65 61 54 56 59 60
118 121 119 119 118 111 106 100 104 98 88 99 96 100 97 99 96 93 94 95 96 94 95 91 81 75 74 65 54 56 48 45 51 49 43 38 42 71 58 57 61 59 57 60 58 55 59 59 64
113 122 122 124 119 113 111 107 110 101 92 94 92 95 98 96 94 91 91 93 97 100 96 91 85 80 73 66 58 51 44 49 36 37 31 32 56 55 55 56 52 65 70 64 61 61 65 71 73
108 122 128 129 120 117 117 110 112 105 91 87 91 86 89 92 92 91 91 88 94 99 93 91 90 85 77 67 62 55 42 47 19 26 29 39 59 49 56 55 54 65 70 78 72 72 72 91 101
104 119 129 131 126 121 116 113 114 105 98 87 87 84 86 83 88 87 88 90 92 92 94 92 88 86 80 72 62 56 45 32 32 45 58 52 57 59 57 62 65 69 78 84 81 91 97 103 96
99 112 126 133 130 127 120 113 118 107 95 82 84 80 73 70 76 87 89 90 89 92 91 90 89 82 82 72 65 61 54 51 47 48 49 60 66 68 71 78 84 87 93 99 102 109 110 113 120
89 108 123 134 138 125 119 116 115 101 91 82 78 77 74 67 60 67 83 90 90 91 87 89 87 83 76 74 76 73 64 63 64 73 55 54 68 80 89 90 92 95 96 106 117 125 127 128 138
84 99 117 126 138 125 123 119 113 98 87 82 80 82 79 71 66 64 69 77 84 84 87 86 84 84 81 78 75 81 80 79 86 82 80 80 83 84 90 101 108 107 116 119 129 135 139 140 143
74 87 108 114 133 128 126 112 108 101 94 89 85 85 81 77 72 70 68 66 71 75 77 80 82 85 81 79 77 82 86 87 90 89 91 93 96 96 106 112 114 116 126 133 136 140 141 140 143
68 89 96 109 132 134 123 115 109 106 100 92 85 80 77 75 75 71 65 60 59 60 67 72 77 78 79 78 78 81 82 89 94 91 94 98 100 110 113 115 123 120 131 135 135 141 139 139 135
61 70 82 106 122 129 121 118 109 103 94 83 77 74 74 75 74 70 64 58 54 55 55 61 65 73 78 80 84 82 81 84 91 98 102 104 105 110 113 119 120 129 128 131 134 126 128 128 129
56 70 81 98 112 121 118 109 103 97 91 81 76 72 74 75 73 69 64 60 56 54 51 48 49 47 56 68 73 80 84 84 88 92 99 102 108 112 114 115 123 123 123 119 116 115 119 107 103

GFSSGP_250_spd_165.txt.gz
Wind_Speed
68 68 66 63 60 57 54 51 52 49 52 48 47 44 42 37 36 32 30 27 27 27 26 24 17 14 13 15 16 16 14 12 10 7 6 9 11 12 13 14 14 16 17 20 22 22 22 24 24
70 71 70 68 61 59 60 57 54 54 52 51 50 48 46 42 38 39 33 30 29 30 30 27 25 18 17 19 19 18 16 15 14 12 10 11 10 12 14 14 16 18 20 20 22 23 25 27 27
72 73 73 67 63 60 64 66 60 56 54 53 53 51 49 45 42 42 41 39 39 31 28 29 26 23 21 21 22 23 23 20 18 16 16 15 16 15 17 18 19 19 21 21 23 25 25 26 29
74 75 74 69 67 71 72 70 66 59 58 57 55 54 52 51 46 43 41 41 37 37 36 30 28 26 24 26 26 27 27 27 24 22 21 20 19 17 18 19 21 22 22 25 26 26 27 29 30
75 78 74 71 73 75 79 75 71 65 61 59 57 56 55 53 49 43 40 40 39 37 37 36 35 30 30 27 28 28 30 31 28 27 24 23 22 20 19 22 24 25 28 31 33 36 34 31 29
74 77 77 73 78 80 82 80 76 71 65 62 59 60 57 57 53 52 46 45 43 41 40 36 35 29 30 31 32 33 33 34 33 30 26 27 25 27 27 26 30 32 35 36 39 40 40 36 34
72 77 78 80 83 85 86 85 81 76 71 66 62 59 61 62 59 51 54 51 45 44 40 39 34 32 32 31 31 33 36 36 35 31 32 31 29 29 29 31 34 37 42 43 43 45 42 42 41
76 76 80 80 83 87 90 89 87 81 76 68 64 65 66 62 62 58 52 50 51 42 39 39 44 39 35 33 31 32 38 38 38 38 36 32 29 30 37 38 43 44 47 46 48 50 50 49 46
83 79 75 76 84 88 90 91 89 87 78 71 70 69 66 66 63 62 60 55 54 48 44 42 45 43 43 40 36 36 42 42 42 40 39 29 29 36 44 43 44 45 49 54 54 51 50 48 48
89 82 77 75 76 90 91 94 91 87 83 75 73 75 68 65 67 66 62 62 58 55 50 46 49 46 45 43 41 39 41 42 41 39 40 35 34 43 44 44 44 50 57 55 55 55 54 54 55
95 85 83 83 78 79 91 95 93 91 86 84 78 76 73 68 68 70 66 62 60 58 56 50 51 48 48 45 42 42 45 41 42 42 41 40 42 46 48 47 51 54 51 52 53 52 59 59 57
102 94 87 89 86 80 83 96 97 92 91 88 83 81 77 73 73 70 67 63 58 56 54 54 53 47 40 40 44 42 46 46 43 44 46 48 43 46 46 47 51 55 55 56 58 60 62 60 61
108 102 94 92 92 87 83 84 100 96 95 91 87 84 84 81 75 73 67 63 63 61 58 53 50 52 47 43 39 44 46 46 46 46 49 48 50 51 51 54 55 58 58 58 56 56 56 58 58
112 106 99 96 96 93 86 86 96 98 97 94 90 90 88 85 82 75 71 68 66 65 60 57 54 55 53 49 44 42 47 48 47 46 47 51 51 53 57 60 57 52 51 47 44 53 58 59 56
118 113 106 100 101 96 90 87 77 100 101 96 91 93 92 88 83 78 78 74 73 65 65 62 60 59 57 52 48 48 48 49 49 50 50 53 55 58 61 54 45 46 44 43 50 52 54 59 58
123 119 112 108 104 99 94 79 89 102 101 101 96 94 96 89 86 83 80 79 78 73 68 70 66 63 61 54 54 51 53 53 55 53 52 49 56 62 46 51 44 41 44 42 46 50 49 59 58
129 122 116 114 109 104 95 90 87 92 98 102 101 98 93 96 90 88 83 82 83 80 74 69 65 64 66 62 63 55 53 57 55 50 50 51 56 59 56 47 47 47 53 51 53 44 53 59 56
133 128 121 117 113 106 99 96 94 90 100 99 105 101 93 85 94 93 90 86 85 83 77 76 74 73 70 66 65 63 59 57 51 50 53 57 61 55 50 42 43 47 53 51 47 48 55 64 71
133 131 125 122 116 110 105 103 97 95 96 96 103 101 97 95 96 95 92 90 87 83 84 83 82 81 76 73 66 63 60 57 55 55 55 58 57 51 49 40 37 29 29 41 45 57 59 68 72
125 136 131 125 122 113 110 105 103 99 96 99 92 99 99 97 99 97 94 91 90 87 84 85 85 82 77 78 77 70 64 57 55 49 50 53 45 51 44 29 23 31 23 39 52 63 64 72 73
117 132 136 133 126 117 115 110 108 101 96 99 94 94 99 97 97 97 95 94 91 91 91 88 87 87 83 81 81 74 67 64 59 54 52 54 49 41 42 32 26 38 48 59 65 62 72 80 80
109 125 137 139 129 123 118 113 111 105 98 99 91 84 91 91 95 98 99 93 85 95 89 92 95 91 87 85 81 78 76 74 67 64 59 59 49 50 51 54 54 57 61 63 70 74 77 85 89
101 116 134 140 133 125 122 118 113 113 106 99 93 78 80 87 91 94 92 86 88 88 90 96 95 93 91 89 85 80 73 73 72 69 66 65 55 56 63 58 67 70 71 76 81 86 88 89 94
91 107 124 141 138 130 124 121 118 115 103 94 89 83 77 78 79 91 90 88 86 87 98 91 90 93 92 87 84 81 76 74 73 75 73 72 65 64 68 71 69 69 75 82 87 88 96 103 110
82 99 114 127 141 132 128 126 117 112 102 94 86 82 76 75 73 68 80 86 87 87 90 87 87 88 90 91 90 88 85 84 77 78 76 78 63 64 69 73 77 74 72 87 93 103 109 114 120
76 88 103 112 123 127 133 127 121 111 103 95 91 87 80 74 68 65 67 74 86 88 86 85 84 84 85 86 85 83 85 86 85 82 81 80 80 71 75 73 73 76 85 92 105 109 118 121 125
65 77 95 104 115 130 135 122 120 113 104 101 97 91 88 77 69 69 60 66 68 77 80 80 81 82 82 79 78 76 79 77 79 81 79 83 83 83 82 88 92 97 103 111 115 117 125 127 129
51 69 80 98 112 121 130 127 125 114 107 103 99 96 86 78 73 65 62 58 58 59 63 64 67 74 77 79 80 80 78 79 77 78 80 81 86 90 89 90 98 103 110 115 120 124 126 130 131
46 60 70 88 103 107 125 128 125 115 103 101 95 93 85 74 68 73 70 61 57 56 52 50 54 57 58 65 73 77 76 73 73 76 78 82 84 87 90 94 98 103 108 114 116 121 124 127 125
39 54 67 80 93 104 120 124 123 113 102 95 92 87 81 77 69 72 75 70 64 61 56 52 46 45 44 50 57 58 66 70 74 76 76 78 81 83 88 92 96 99 102 106 111 110 110 109 104

GFSSGP_250_spd_168.txt.gz
Wind_Speed
65 69 68 65 63 57 56 51 49 53 51 49 48 46 42 40 36 37 30 28 29 28 23 21 21 14 13 11 15 13 13 13 7 6 6 7 9 11 12 13 13 16 18 19 17 19 21 24 26
67 69 72 70 64 60 59 59 53 55 53 51 51 52 51 45 41 35 35 32 34 33 28 25 27 23 19 16 14 15 12 12 11 12 13 11 12 13 15 16 16 17 20 22 21 21 26 30 32
71 71 72 72 68 63 63 63 60 56 58 54 54 54 52 50 47 40 40 37 37 35 31 35 32 27 22 19 17 16 14 14 17 18 19 18 17 16 17 18 19 20 21 21 24 30 31 34 34
73 75 72 72 72 71 72 69 65 60 58 60 57 56 57 52 51 45 43 43 40 37 36 29 34 34 28 24 17 17 18 19 20 23 25 25 22 21 21 22 20 23 26 30 32 34 35 41 41
71 76 75 72 74 78 78 73 69 64 62 61 61 60 58 58 55 51 48 47 46 41 37 34 30 34 28 26 22 19 21 22 23 24 26 27 27 24 28 27 27 26 29 33 36 38 39 41 43
69 72 77 74 78 79 80 80 74 69 66 62 64 61 61 62 59 55 53 46 50 46 46 46 45 41 38 32 30 26 25 26 27 27 28 29 29 29 30 27 29 33 34 35 37 39 42 44 45
73 71 74 81 82 83 85 85 79 75 71 68 64 64 63 66 63 60 57 51 45 48 49 47 42 42 41 37 34 34 32 28 27 29 29 29 31 34 36 33 28 35 36 39 37 40 48 46 45
80 75 73 78 83 86 90 87 85 80 75 71 69 67 66 66 67 64 61 53 48 49 49 47 45 43 42 37 36 34 27 25 27 30 33 30 34 39 41 37 36 38 35 37 42 45 46 44 41
89 83 77 75 86 92 93 91 88 84 81 73 72 70 68 68 67 67 63 59 54 49 51 49 46 41 42 41 36 32 30 30 30 34 39 36 36 41 41 39 37 44 46 44 45 47 46 47 46
90 88 84 83 84 92 96 96 94 89 85 82 77 74 75 70 69 67 66 61 58 61 55 52 51 49 49 40 41 38 44 37 35 38 37 36 37 40 39 39 43 49 51 49 49 49 51 51 47
95 91 94 90 84 89 98 98 96 91 87 86 85 83 77 74 71 71 69 67 61 58 56 50 47 46 48 44 46 43 43 41 39 40 40 38 41 44 44 47 50 53 55 55 51 52 52 48 41
104 97 98 93 93 90 92 103 97 94 94 96 84 81 81 78 75 73 69 70 68 65 58 58 57 50 48 45 48 48 48 47 42 42 39 42 43 41 44 52 52 53 57 57 58 46 45 40 37
110 105 102 100 98 95 92 94 103 99 97 95 91 88 86 81 79 77 74 70 68 67 67 64 61 61 57 52 48 44 45 50 49 46 43 42 43 43 46 49 51 57 59 52 50 48 46 41 44
117 112 106 105 103 100 95 94 101 102 102 99 95 92 90 86 84 81 75 72 73 70 65 63 63 62 60 58 48 50 50 48 47 45 41 41 44 46 45 51 56 56 56 56 54 48 45 40 44
120 117 111 110 106 103 100 95 89 106 103 99 95 94 92 90 88 85 80 75 73 71 69 65 63 67 63 65 60 56 53 46 43 40 41 45 46 50 51 57 56 59 54 56 59 49 51 42 41
121 124 118 113 110 108 102 94 96 102 106 104 100 96 94 94 92 88 85 80 74 73 71 65 64 63 67 65 64 61 57 48 48 46 47 47 48 50 54 55 56 50 49 52 53 58 52 46 37
115 128 123 118 114 111 104 102 100 99 100 106 103 99 95 95 94 89 87 85 81 76 74 74 63 65 69 62 65 63 58 51 50 51 50 47 47 48 55 57 57 54 54 61 58 57 53 54 48
110 128 128 124 117 115 110 106 103 101 96 102 105 102 97 93 94 93 90 89 87 82 78 77 74 69 68 68 69 64 61 56 57 59 55 51 50 53 58 53 59 58 57 64 57 50 46 42 46
103 121 131 129 123 119 116 110 105 103 101 101 102 103 99 94 84 93 92 91 90 88 85 79 79 76 70 68 65 64 68 66 63 64 62 60 59 58 58 61 55 56 56 55 51 41 40 49 49
97 116 132 131 126 123 117 110 108 105 101 98 96 102 101 96 97 85 85 95 92 90 86 86 82 83 82 71 69 64 67 67 67 68 70 63 59 60 61 63 65 58 57 62 60 66 59 56 59
91 111 129 136 130 126 120 114 110 104 103 102 96 94 99 97 96 95 86 84 93 88 88 86 85 86 85 83 73 73 66 70 72 72 74 69 68 68 64 66 64 65 63 68 61 65 70 71 70
86 105 121 136 134 128 125 115 109 107 105 102 98 89 92 93 96 97 92 88 81 84 88 87 89 86 83 81 83 79 77 77 76 71 78 78 77 77 75 75 76 74 69 68 74 76 73 77 82
80 96 113 133 138 133 126 120 112 112 109 104 98 93 88 91 85 94 95 90 86 74 76 88 87 88 87 85 85 81 82 80 82 79 78 76 81 81 79 82 79 80 80 80 81 84 90 84 88
75 89 105 127 140 136 129 125 119 114 105 100 95 92 87 85 82 85 91 90 86 86 79 79 80 83 85 86 86 88 83 83 83 82 82 82 80 79 81 84 81 81 84 87 89 92 90 92 96
70 81 97 117 135 133 131 131 125 110 104 99 94 91 88 83 83 78 76 81 86 83 84 77 74 82 82 83 85 86 84 83 83 83 84 83 81 80 84 86 86 87 88 88 89 88 88 92 98
62 76 87 103 120 134 135 128 125 115 110 103 98 96 92 88 82 76 74 79 82 84 84 86 81 78 80 79 80 83 85 88 86 88 86 86 87 84 82 85 91 93 93 90 90 91 94 99 106
52 69 80 92 109 135 139 127 127 122 112 106 100 98 97 96 89 74 74 69 71 78 84 83 79 78 79 78 76 78 80 82 83 85 85 85 87 89 91 92 91 88 89 89 92 95 98 101 105
44 58 74 88 104 121 133 127 130 125 117 108 102 99 99 97 90 79 68 64 66 69 77 74 71 72 75 76 76 73 73 77 80 81 80 82 85 86 84 83 83 83 86 89 90 92 95 99 98
40 47 66 83 93 107 118 127 126 125 116 109 102 100 98 95 91 78 66 62 61 69 65 59 62 63 65 71 68 67 73 77 77 74 76 78 79 81 80 80 81 84 84 85 86 86 84 84 87
35 42 48 60 76 91 111 128 131 124 116 108 104 100 97 94 86 77 65 59 60 59 56 58 53 48 47 48 52 51 47 54 54 53 59 65 65 62 65 70 72 69 68 71 71 73 78 80 79

GFSSGP_250_spd_171.txt.gz
Wind_Speed
66 67 69 66 64 62 58 56 54 53 50 51 52 47 47 44 31 32 44 40 40 32 31 25 17 21 20 19 18 16 13 11 11 9 9 9 10 11 13 13 15 16 18 20 21 22 24 29 31
67 69 70 71 65 64 60 60 58 54 56 51 54 52 46 43 36 45 27 37 42 37 32 31 23 25 25 15 16 19 17 14 15 12 10 11 12 13 15 16 17 19 21 23 25 25 27 31 33
70 70 72 71 69 65 66 65 62 61 58 57 55 56 53 47 47 50 43 43 41 38 36 32 31 23 23 22 17 20 18 15 14 12 13 15 17 20 19 19 19 21 21 23 25 29 29 30 31
64 73 72 71 68 71 70 70 68 64 60 60 59 59 59 58 50 51 47 47 41 39 38 40 40 31 36 26 19 18 20 19 17 16 18 19 19 21 23 24 23 26 26 28 28 32 33 33 35
63 68 72 72 72 76 77 76 73 68 63 63 63 60 62 59 58 51 51 43 40 40 42 44 39 37 29 35 33 28 23 17 18 19 18 21 24 25 24 23 27 25 27 29 28 31 36 37 37
64 66 70 72 76 78 81 81 77 73 69 68 65 63 65 66 63 53 52 48 47 46 45 45 39 33 33 24 34 31 25 27 21 22 24 24 24 25 26 27 31 32 34 36 37 38 45 41 46
68 69 66 73 81 81 82 86 80 78 74 72 69 69 66 70 71 64 52 56 43 50 50 48 40 34 38 37 39 38 37 32 31 31 29 27 27 28 30 31 35 37 34 38 40 43 49 49 51
79 74 71 71 76 84 86 87 89 84 80 78 74 72 73 69 71 69 65 58 54 48 52 54 47 42 47 48 48 44 42 35 34 34 29 27 28 34 32 35 38 41 42 43 43 48 55 54 58
88 80 71 73 76 85 91 89 90 92 87 82 76 81 68 71 72 71 68 64 59 51 49 53 53 52 48 49 44 45 43 41 36 34 29 33 35 34 37 41 42 39 39 42 48 56 54 60 54
91 86 82 82 84 85 95 94 95 95 92 88 80 82 69 76 74 74 71 71 65 59 58 54 54 54 53 52 47 45 44 40 34 37 37 41 40 38 39 40 40 39 45 48 54 53 55 51 52
95 90 91 90 91 93 91 97 98 95 96 90 90 83 81 79 75 74 74 73 73 67 55 54 55 54 52 51 51 48 41 39 42 45 46 44 42 42 43 44 42 44 45 46 46 51 56 54 56
100 97 96 97 97 94 90 93 100 98 97 96 98 91 83 79 76 76 74 75 74 71 67 57 54 45 54 55 53 52 49 51 53 51 49 46 46 44 43 46 49 48 47 49 48 53 57 58 59
108 103 102 103 100 92 94 93 96 103 100 103 96 87 82 85 82 80 77 74 73 75 72 63 62 61 56 50 49 50 49 50 50 49 47 46 47 46 48 48 48 47 49 50 55 59 63 60 61
117 112 108 106 102 98 98 100 99 99 103 101 94 93 93 89 86 84 80 79 76 70 73 70 65 62 63 61 59 53 49 49 48 48 49 49 47 47 47 47 48 50 52 56 59 58 56 57 61
121 122 116 110 107 101 105 107 97 97 107 101 98 100 97 92 88 85 85 83 78 75 70 72 72 70 65 62 60 61 62 60 54 50 48 51 48 45 43 42 47 50 53 54 54 58 60 66 67
108 125 123 117 115 109 110 101 100 104 100 103 104 101 97 95 93 91 89 84 81 77 76 70 68 73 70 66 64 62 63 64 62 58 60 58 51 52 51 52 51 54 53 55 58 60 62 66 67
96 113 127 125 118 117 112 106 109 107 105 100 102 103 102 99 96 95 92 88 83 81 79 76 70 66 66 61 60 62 59 64 65 66 67 64 58 54 53 56 54 54 60 61 62 64 63 67 70
85 105 120 128 127 123 115 114 117 113 109 101 101 107 106 104 101 98 95 91 88 84 81 78 76 72 71 65 59 62 63 63 65 66 64 65 62 58 59 62 62 61 65 68 66 65 69 69 72
69 94 110 128 132 130 123 119 118 115 109 106 101 98 103 102 102 100 95 92 89 87 83 81 77 73 73 71 62 57 64 67 66 66 67 66 65 63 64 66 69 68 68 68 73 77 74 78 80
70 83 101 118 134 135 131 123 120 119 112 105 102 97 98 104 103 100 96 91 92 90 87 83 81 78 72 66 66 68 64 63 65 67 68 66 66 70 69 72 71 74 75 74 80 80 82 85 82
64 76 91 108 133 134 130 124 121 118 112 109 106 103 96 95 102 100 95 94 92 90 88 87 86 84 80 72 70 75 70 70 68 66 66 71 73 74 72 73 75 77 79 83 85 88 91 91 92
58 71 85 102 121 134 132 124 115 116 111 109 103 99 93 89 98 98 90 86 86 88 95 92 90 88 85 81 78 78 81 79 70 71 74 70 67 71 74 76 79 80 81 82 89 90 90 89 91
52 64 80 98 115 136 134 128 119 120 116 111 105 98 95 89 88 91 83 53 49 83 98 97 94 89 86 84 83 84 81 81 84 82 80 76 77 75 76 77 80 82 85 86 89 92 95 96 94
44 60 76 94 112 132 133 126 122 121 117 112 106 101 95 93 89 85 93 82 76 64 64 79 90 91 87 85 85 84 85 87 87 85 83 84 83 82 83 81 80 85 86 87 89 89 87 87 96
44 54 74 90 108 122 131 127 123 119 113 110 104 100 96 95 92 85 91 102 97 85 75 69 71 70 76 81 86 85 83 85 87 88 88 86 86 84 87 87 86 86 88 90 88 89 92 97 99
41 54 69 86 99 114 131 131 128 119 118 112 107 103 100 96 95 85 82 87 97 99 95 91 70 77 74 69 68 72 75 77 84 88 89 86 84 86 85 86 85 88 90 93 93 96 95 98 97
38 51 68 81 97 114 130 130 130 121 112 113 111 108 106 101 94 87 78 69 65 66 83 97 92 87 73 65 69 69 60 62 67 74 78 82 82 81 82 84 84 87 89 91 89 87 88 80 76
34 48 61 75 91 107 121 130 131 122 118 115 113 110 105 102 95 82 72 42 62 73 74 82 90 88 83 76 79 76 73 77 78 76 76 77 76 78 82 81 81 82 84 79 72 73 72 75 78
28 39 50 72 86 102 114 126 132 123 119 115 113 108 108 103 89 80 76 82 77 71 71 76 85 81 76 77 72 69 71 71 72 72 71 75 73 72 80 77 80 69 63 63 65 70 71 72 76
21 33 46 61 75 88 103 123 131 125 122 118 113 110 107 99 85 76 70 74 89 97 85 84 82 71 68 67 63 58 59 60 59 61 62 54 60 58 54 51 53 59 57 60 62 64 67 73 75

GFSSGP_250_spd_174.txt.gz
Wind_Speed
68 68 68 67 63 61 59 58 57 55 54 52 49 22 46 54 44 26 38 38 35 34 32 30 27 22 16 21 18 20 17 16 14 9 6 6 7 9 10 12 14 15 17 18 16 20 25 26 28
69 70 71 69 65 62 63 65 61 61 60 56 51 47 48 52 56 47 29 38 38 37 36 33 30 21 20 24 24 21 18 17 14 11 8 8 9 10 11 14 15 16 18 18 20 25 25 26 31
68 71 73 69 66 61 67 69 67 66 64 63 63 65 50 48 57 55 52 23 38 40 38 34 35 27 18 25 23 14 19 18 13 12 9 12 14 14 15 15 18 19 20 20 22 25 26 27 35
63 71 72 70 67 66 69 72 72 71 70 66 65 65 56 58 58 60 52 48 28 39 40 39 35 38 29 23 26 20 19 15 16 16 13 16 15 16 18 20 21 22 22 23 23 28 28 32 39
60 63 71 70 72 71 73 75 77 76 74 70 65 67 63 60 61 59 58 49 47 47 43 42 38 36 36 25 34 33 24 26 23 18 16 18 18 20 22 23 24 26 27 30 30 31 32 35 41
63 63 61 68 71 74 75 81 81 80 78 74 65 70 62 70 62 63 59 59 56 56 48 47 42 41 42 40 37 33 39 31 28 21 18 21 27 26 26 25 27 29 31 35 38 38 38 39 42
68 69 63 65 72 77 78 82 85 83 82 79 73 73 69 76 70 66 65 61 62 57 50 48 44 43 44 42 37 29 36 28 31 32 27 31 35 31 29 29 30 31 36 38 38 41 42 42 46
77 75 71 67 68 75 84 86 86 86 86 83 81 81 73 75 73 70 68 59 57 57 53 46 42 46 44 42 36 35 35 36 33 35 36 37 34 33 33 30 34 34 39 42 43 41 43 45 47
84 81 73 73 72 76 83 87 89 88 89 84 88 87 78 67 74 70 73 75 53 59 56 49 45 44 46 43 29 39 43 42 41 41 40 41 37 37 37 36 41 39 40 44 44 44 45 45 49
89 86 80 82 82 81 85 88 93 95 88 89 95 90 79 73 77 78 77 72 62 56 59 55 52 45 50 49 41 39 42 43 44 41 43 32 35 40 40 44 44 42 45 47 48 49 47 47 51
95 87 88 89 89 88 89 91 96 97 93 93 98 87 82 79 79 78 82 76 75 65 58 59 57 49 49 52 51 53 47 43 47 44 38 36 44 43 46 49 48 49 49 48 51 51 50 52 56
102 94 92 95 97 97 94 95 96 93 92 98 100 92 87 84 83 82 79 82 80 72 60 59 59 50 47 48 55 57 54 51 50 51 49 46 47 49 54 51 51 48 53 53 50 50 52 54 58
106 104 101 101 102 101 102 96 93 91 93 101 99 95 89 88 86 83 82 80 83 80 73 67 64 51 46 49 55 52 55 54 52 50 48 50 53 55 52 51 49 53 52 52 49 52 56 56 57
112 112 110 106 106 107 107 102 101 90 89 103 101 91 90 88 88 86 83 82 80 77 77 73 73 63 47 47 48 46 48 51 44 46 48 45 49 49 53 54 56 56 53 52 53 55 59 59 55
102 117 117 115 112 112 109 110 102 94 95 100 96 93 92 88 95 88 87 83 79 78 76 75 73 72 66 50 50 54 54 51 55 53 51 53 55 56 54 57 60 60 56 61 58 60 58 61 68
91 107 123 122 121 116 117 107 100 100 100 103 95 99 96 97 97 95 89 86 83 79 73 72 73 71 71 70 62 63 66 63 60 60 63 65 64 62 63 65 64 65 65 62 61 65 68 72 73
80 93 114 126 125 125 121 106 102 108 107 106 99 97 101 96 97 84 93 89 85 82 79 77 68 68 72 72 71 69 65 64 63 62 64 64 63 64 63 65 67 68 65 64 64 65 71 75 79
75 86 100 120 128 129 121 110 112 111 112 108 103 95 102 100 96 61 74 96 91 85 83 78 73 64 62 63 60 68 67 69 67 62 59 58 60 63 64 65 65 64 65 67 70 75 76 80 82
63 72 89 104 124 127 123 116 116 113 113 111 106 99 99 102 97 86 57 95 98 92 83 78 77 78 73 62 57 59 58 63 65 64 63 61 62 67 68 67 67 69 73 74 78 80 79 84 87
53 65 78 96 111 126 124 123 120 118 115 115 110 103 99 99 96 88 86 65 91 96 85 80 81 79 78 78 75 68 65 62 61 61 63 61 67 67 67 68 69 71 74 77 79 83 84 87 92
46 59 71 84 100 116 127 124 125 123 118 118 113 105 107 99 89 97 113 94 83 92 86 82 83 81 79 78 78 74 70 67 67 61 62 62 62 63 67 66 70 72 74 77 78 81 83 85 88
41 56 67 79 97 109 123 130 126 128 122 118 112 107 102 93 83 94 96 98 97 92 87 85 85 84 81 78 77 77 75 72 65 65 66 63 62 64 68 69 73 77 78 80 84 91 90 93 97
40 49 57 73 89 103 115 132 129 125 119 117 111 106 102 99 91 81 65 59 93 93 89 87 87 84 82 80 79 79 78 78 78 75 73 81 81 81 80 80 81 81 84 86 89 92 96 96 98
33 43 57 72 86 94 107 122 126 126 119 113 108 105 105 99 89 84 91 85 75 83 87 89 86 85 82 82 84 81 82 82 81 81 80 82 84 85 87 87 88 88 89 90 92 93 95 94 94
27 37 51 64 71 77 97 108 126 125 119 115 110 106 103 97 90 88 86 82 90 84 79 79 80 77 81 88 84 82 83 85 83 81 82 85 86 89 90 89 87 87 88 90 92 92 92 92 92
24 34 47 56 64 75 92 101 123 129 125 118 114 111 107 98 92 89 82 76 71 77 78 78 74 81 83 77 81 89 88 87 85 84 86 88 88 90 92 93 90 87 85 84 85 89 88 88 79
22 34 43 52 64 73 84 93 117 129 129 123 118 114 106 99 95 90 80 71 63 65 72 65 68 58 57 61 60 54 65 76 79 79 80 82 83 82 87 87 87 86 87 85 85 84 78 68 72
22 34 38 51 60 72 78 94 109 128 131 123 119 113 104 101 93 86 74 62 53 59 63 82 68 55 52 54 58 62 70 71 77 80 82 83 85 84 85 87 86 88 87 79 74 72 64 66 67
18 25 35 45 58 68 81 94 106 122 129 121 116 112 104 103 92 75 66 33 52 60 77 63 62 68 77 74 80 86 90 86 88 84 77 78 83 83 85 83 84 79 67 61 58 57 60 65 69
13 23 31 40 52 62 76 93 107 120 120 122 116 109 105 103 85 75 63 65 62 63 76 83 86 75 77 74 71 70 71 71 72 74 75 77 78 80 77 76 64 53 48 54 55 58 64 65 65